Galesburg, IL

12:50 AM CST on February 20, 2017 (GMT -0600)
Galesburg Municipal

Weather History for KGBG - March, 2012

Change the Weather History Date:

Thursday, March 1, 2012

  Actual Average Record
Temperature  
Mean Temperature 43 °F -  
Max Temperature 51 °F 44 °F 71 °F (1992)
Min Temperature 35 °F 25 °F -10 °F (1962)
Degree Days  
Heating Degree Days 22    
Moisture  
Dew Point 30 °F    
Average Humidity 65    
Maximum Humidity 78    
Minimum Humidity 45    
Precipitation  
Precipitation 0.00 in - - ()
Sea Level Pressure  
Sea Level Pressure 29.78 in    
Wind  
Wind Speed 13 mph (West)    
Max Wind Speed 21 mph    
Max Gust Speed 31 mph    
Visibility 10 miles    
Events      
Averages and records for this station are not official NWS values.
T = Trace of Precipitation, MM = Missing Value Source: NWS Daily Summary

Daily Weather History Graph

Daily Weather History Graph

Search for Another Location

Airport or City:

Trip Planner

Search our weather history database for the weather conditions in past years. The results will help you decide how hot, cold, wet, or windy it might be!

Date:

Astronomy

Mar. 01, 2012 Rise Set
Actual Time 6:35 AM CST 5:53 PM CST
Civil Twilight 6:07 AM CST 6:20 PM CST
Nautical Twilight 5:35 AM CST 6:52 PM CST
Astronomical Twilight 5:03 AM CST 7:24 PM CST
Moon 11:11 AM CST (3/1) 1:36 AM CST (3/1)
Length of Visible Light 12h 13m
Length of Day
11h 18m
First Quarter, 57% of the Moon is Illuminated
Mar 1
First Quarter
Mar 8
Full
Mar 14
Last Quarter
Mar 22
New
Mar 30
First Quarter

Hourly Weather History & Observations

Time (CST) Temp. Windchill Dew Point Humidity Pressure Visibility Wind Dir Wind Speed Gust Speed Precip Events Conditions
12:15 AM 37.4 °F 26.9 °F 28.4 °F 70% 29.76 in 10.0 mi West 20.7 mph 27.6 mph N/A   Overcast
12:35 AM 37.0 °F 27.4 °F 27.9 °F 69% 29.77 in 10.0 mi West 17.3 mph 31.1 mph N/A   Overcast
12:55 AM 36.9 °F 26.5 °F 28.0 °F 70% 29.77 in 10.0 mi West 19.6 mph 26.5 mph N/A   Overcast
1:15 AM 36.7 °F 26.0 °F 27.9 °F 70% 29.78 in 10.0 mi West 20.7 mph 26.5 mph N/A   Overcast
1:35 AM 36.7 °F 26.6 °F 28.0 °F 71% 29.78 in 10.0 mi West 18.4 mph 23.0 mph N/A   Overcast
1:55 AM 36.5 °F 26.0 °F 28.2 °F 72% 29.79 in 10.0 mi West 19.6 mph 24.2 mph N/A   Overcast
2:15 AM 36.5 °F 26.3 °F 28.2 °F 72% 29.79 in 10.0 mi WSW 18.4 mph 23.0 mph N/A   Overcast
2:35 AM 36.5 °F 26.7 °F 28.4 °F 72% 29.79 in 10.0 mi West 17.3 mph - N/A   Overcast
2:55 AM 36.5 °F 27.0 °F 28.2 °F 72% 29.79 in 10.0 mi West 16.1 mph 24.2 mph N/A   Overcast
3:15 AM 36.5 °F 26.3 °F 28.2 °F 72% 29.80 in 10.0 mi West 18.4 mph 24.2 mph N/A   Overcast
3:35 AM 36.3 °F 26.8 °F 28.2 °F 72% 29.80 in 10.0 mi West 16.1 mph 20.7 mph N/A   Overcast
3:55 AM 36.1 °F 26.2 °F 28.2 °F 73% 29.81 in 10.0 mi West 17.3 mph 20.7 mph N/A   Overcast
4:15 AM 36.0 °F 26.7 °F 28.2 °F 73% 29.81 in 10.0 mi West 15.0 mph - N/A   Overcast
4:35 AM 36.0 °F 28.0 °F 28.2 °F 73% 29.81 in 10.0 mi West 11.5 mph - N/A   Overcast
4:55 AM 35.8 °F 28.3 °F 28.4 °F 75% 29.81 in 10.0 mi West 10.4 mph - N/A   Overcast
5:15 AM 35.8 °F 27.8 °F 28.8 °F 76% 29.82 in 10.0 mi West 11.5 mph - N/A   Overcast
5:35 AM 36.0 °F 28.0 °F 28.8 °F 75% 29.82 in 10.0 mi WSW 11.5 mph - N/A   Overcast
5:55 AM 36.0 °F 28.5 °F 28.4 °F 74% 29.83 in 10.0 mi WSW 10.4 mph - N/A   Overcast
6:15 AM 36.0 °F 28.0 °F 28.4 °F 74% 29.84 in 10.0 mi WSW 11.5 mph 16.1 mph N/A   Overcast
6:35 AM 36.1 °F 29.3 °F 28.4 °F 73% 29.85 in 10.0 mi WSW 9.2 mph - N/A   Overcast
6:55 AM 36.0 °F 29.0 °F 28.4 °F 74% 29.85 in 10.0 mi WSW 9.2 mph - N/A   Overcast
7:15 AM 36.1 °F 32.3 °F 28.2 °F 73% 29.84 in 10.0 mi SW 4.6 mph - N/A   Overcast
7:35 AM 36.1 °F 30.6 °F 28.4 °F 73% 29.85 in 10.0 mi SW 6.9 mph - N/A   Overcast
7:55 AM 36.5 °F 30.3 °F 28.9 °F 74% 29.86 in 10.0 mi SW 8.1 mph - N/A   Overcast
8:15 AM 37.4 °F 30.8 °F 28.4 °F 70% 29.87 in 10.0 mi SW 9.2 mph - N/A   Overcast
8:35 AM 36.5 °F 29.7 °F 28.8 °F 74% 29.87 in 10.0 mi SW 9.2 mph - N/A   Overcast
8:55 AM 37.0 °F 31.6 °F 28.6 °F 71% 29.87 in 10.0 mi WSW 6.9 mph - N/A   Overcast
9:15 AM 37.4 °F 31.4 °F 28.2 °F 69% 29.88 in 10.0 mi SW 8.1 mph - N/A   Overcast
9:35 AM 37.8 °F 31.8 °F 28.8 °F 70% 29.87 in 10.0 mi WSW 8.1 mph - N/A   Overcast
9:55 AM 38.3 °F 31.9 °F 28.4 °F 68% 29.87 in 10.0 mi WSW 9.2 mph - N/A   Overcast
10:15 AM 38.3 °F 31.4 °F 28.0 °F 67% 29.88 in 10.0 mi SW 10.4 mph - N/A   Overcast
10:35 AM 38.5 °F 31.6 °F 28.0 °F 66% 29.89 in 10.0 mi SSW 10.4 mph - N/A   Overcast
10:55 AM 40.1 °F 34.1 °F 28.4 °F 63% 29.89 in 10.0 mi West 9.2 mph - N/A   Overcast
11:15 AM 41.0 °F 37.1 °F 28.0 °F 60% 29.88 in 10.0 mi WSW 5.8 mph - N/A   Scattered Clouds
11:35 AM 42.1 °F 40.2 °F 28.4 °F 58% 29.87 in 10.0 mi WNW 3.5 mph - N/A   Scattered Clouds
11:55 AM 43.7 °F 39.7 °F 28.6 °F 55% 29.87 in 10.0 mi SSW 6.9 mph - N/A   Scattered Clouds
12:15 PM 43.9 °F 40.5 °F 29.1 °F 56% 29.85 in 10.0 mi WSW 5.8 mph - N/A   Scattered Clouds
12:35 PM 44.6 °F 43.1 °F 28.4 °F 53% 29.83 in 10.0 mi South 3.5 mph - N/A   Clear
12:55 PM 46.2 °F 42.7 °F 29.7 °F 53% 29.82 in 10.0 mi South 6.9 mph - N/A   Clear
1:35 PM 46.9 °F - 30.4 °F 53% 29.79 in 10.0 mi East 3.5 mph - N/A   Clear
1:55 PM 48.2 °F - 30.2 °F 50% 29.78 in 10.0 mi Calm Calm - N/A   Clear
2:15 PM 48.6 °F - 31.1 °F 51% 29.77 in 10.0 mi Calm Calm - N/A   Clear
2:35 PM 49.1 °F - 31.6 °F 51% 29.76 in 10.0 mi Calm Calm - N/A   Clear
2:55 PM 50.0 °F - 32.0 °F 50% 29.74 in 10.0 mi ESE 4.6 mph - N/A   Clear
3:15 PM 50.4 °F - 31.8 °F 49% 29.73 in 10.0 mi ENE 4.6 mph - N/A   Clear
3:35 PM 51.3 °F - 31.5 °F 47% 29.72 in 10.0 mi NE 5.8 mph - N/A   Clear
3:55 PM 51.1 °F - 30.6 °F 45% 29.73 in 10.0 mi ESE 3.5 mph - N/A   Clear
4:15 PM 51.1 °F - 31.6 °F 47% 29.73 in 10.0 mi ENE 9.2 mph - N/A   Clear
4:35 PM 50.9 °F - 32.0 °F 48% 29.72 in 10.0 mi ENE 9.2 mph - N/A   Clear
4:55 PM 50.5 °F - 31.1 °F 47% 29.72 in 10.0 mi ENE 8.1 mph - N/A   Clear
5:15 PM 49.1 °F - 31.1 °F 50% 29.72 in 10.0 mi East 8.1 mph - N/A   Clear
5:35 PM 48.2 °F - 31.6 °F 53% 29.73 in 10.0 mi ENE 8.1 mph - N/A   Clear
5:55 PM 47.3 °F - 32.0 °F 55% 29.73 in 10.0 mi ENE 6.9 mph - N/A   Clear
6:15 PM 46.4 °F 41.5 °F 32.0 °F 57% 29.73 in 10.0 mi ENE 10.4 mph - N/A   Clear
6:35 PM 45.5 °F 40.8 °F 32.0 °F 59% 29.73 in 10.0 mi ENE 9.2 mph - N/A   Clear
6:55 PM 44.8 °F 39.4 °F 32.0 °F 61% 29.72 in 10.0 mi ENE 10.4 mph - N/A   Clear
7:15 PM 44.2 °F 39.2 °F 32.0 °F 62% 29.72 in 10.0 mi ENE 9.2 mph - N/A   Clear
7:35 PM 43.9 °F 38.3 °F 31.8 °F 63% 29.71 in 10.0 mi ENE 10.4 mph - N/A   Clear
7:55 PM 43.7 °F 37.7 °F 31.8 °F 63% 29.71 in 10.0 mi ENE 11.5 mph - N/A   Clear
8:15 PM 43.3 °F 37.2 °F 32.0 °F 64% 29.70 in 10.0 mi NE 11.5 mph - N/A   Clear
8:35 PM 43.0 °F 36.8 °F 32.0 °F 65% 29.70 in 10.0 mi ENE 11.5 mph - N/A   Clear
8:55 PM 43.0 °F 36.8 °F 32.0 °F 65% 29.69 in 10.0 mi NE 11.5 mph - N/A   Clear
9:15 PM 42.6 °F 35.6 °F 32.0 °F 66% 29.69 in 10.0 mi NE 13.8 mph - N/A   Clear
9:35 PM 42.1 °F 34.9 °F 32.2 °F 68% 29.69 in 10.0 mi NE 13.8 mph - N/A   Clear
9:55 PM 41.5 °F 35.0 °F 32.2 °F 69% 29.69 in 10.0 mi NE 11.5 mph - N/A   Clear
10:15 PM 41.4 °F 33.6 °F 32.2 °F 70% 29.68 in 10.0 mi NE 15.0 mph 18.4 mph N/A   Clear
10:35 PM 41.0 °F 34.3 °F 32.0 °F 70% 29.67 in 10.0 mi NE 11.5 mph - N/A   Clear
10:55 PM 40.6 °F 33.0 °F 32.0 °F 71% 29.66 in 10.0 mi NE 13.8 mph - N/A   Clear
11:15 PM 40.3 °F 32.2 °F 32.0 °F 72% 29.65 in 10.0 mi NNE 15.0 mph - N/A   Clear
11:35 PM 39.2 °F 31.2 °F 32.0 °F 75% 29.65 in 10.0 mi NNE 13.8 mph 19.6 mph N/A   Clear
11:55 PM 38.5 °F 29.6 °F 32.0 °F 78% 29.64 in 10.0 mi NNE 16.1 mph - N/A   Clear